Find Milstar 2

NORAD ID: 23712 Int'l Des: 1995-060 Owner: AFSMC Country: US operational
HEOCIRCULARGSO

Live-Position

3D-Globus wird geladen...

Über Milstar 2

Beschreibung wird geladen...

Nächste Überflüge

Passes for default location (London). Set your location on the main map for personalized predictions.

Höhenverlauf

Loading altitude history...

Zweizeiliger Elementsatz

1 23712U 95060A 26106.27503005 -.00000057 00000-0 00000+0 0 9994
2 23712 14.0517 4.2072 0000782 315.9727 228.0960 1.00364977 32268
Epoch: 16. Apr. 2026 • Age: 28 hours

Aktueller Status

Höhe 35761.6 km
Geschwindigkeit 3.08 km/s
Subsatellitenpunkt -12.73°S, 115.45°W
Startdatum 6. Nov. 1995
Alter 30.4 years
Typ other

Technische Details

Klassifizierung Payload
Masse 4500.00 kg
Trockenmasse 4100.00 kg
Gesamtmasse 4500.00 kg
Länge 15.50 m
Durchmesser 4.00 m
Spannweite 35.00 m
Form Truss + 2 Dish + 2 Pan
Hersteller LMMS
Bus-Typ Milstar
Phasenstatus Unknown Transfer Status
Besitzer/Staat AFSMC/US

Most Searched